Home   Weather   Thabazimbi   Past weeks
Flag for South Africa

Past Weather in Thabazimbi, South Africa — Yesterday and Last 2 Weeks

Now
61 °F

Clear.


Feels Like: 61 °F
Forecast: 79 / 44 °F
Wind: No wind

Location: Seretse Khama International Airport

Current Time: May 31, 2020 at 7:29:24 pm

Latest Report: May 31, 2020 at 7:00 pm


Visibility: 10 mi

Pressure: 30.33 "Hg (27.05 "Hg at 969m altitude)

Humidity: 39%

Dew Point: 36 °F

Location of ThabazimbiLocation

Past Weather in Thabazimbi — Graph

°F

Thabazimbi Temperature Yesterday

Maximum temperature yesterday: 79 °F (at 2:00 pm)
Minimum temperature yesterday: 41 °F (at 4:00 am)
Average temperature yesterday: 59 °F

High & Low Weather Summary for the Past Weeks

 TemperatureHumidityPressure
High79 °F (May 18, 3:00 pm)100% (May 18, 6:00 am)30.48 "Hg (May 18, 6:00 am)
Low30 °F (May 27, 7:00 am)8% (May 28, 4:00 pm)29.95 "Hg (May 26, 4:00 am)
Average58 °F48%30.26 "Hg
* Reported May 16 6:00 pm — May 31 6:00 pm, Thabazimbi. Weather by CustomWeather, © 2020

Note: Actual official high and low records may vary slightly from our data, if they occured in-between our weather recording intervals... More about our weather records

Thabazimbi Weather History for the Previous 24 Hours

Scroll right to see more
 ConditionsComfort  
Time TempWeatherWind HumidityBarometerVisibility
6:00 pm
Sun, May 31
68 °FClear.1 mph28%30.30 "Hg10 mi
5:00 pm77 °FPassing clouds.3 mph19%30.30 "HgN/A
4:00 pm77 °FPassing clouds.6 mph18%30.30 "HgN/A
3:00 pm77 °FPassing clouds.5 mph19%30.30 "HgN/A
2:00 pm75 °FSunny.5 mph24%30.33 "Hg10 mi
1:00 pm73 °FSunny.5 mph25%30.36 "Hg10 mi
12:00 pm70 °FSunny.5 mph31%30.39 "Hg10 mi
11:00 am68 °FPassing clouds.3 mph33%30.39 "HgN/A
10:00 am64 °FPassing clouds.7 mph34%30.42 "HgN/A
9:00 am61 °FSunny.2 mph39%30.39 "Hg10 mi
8:00 am46 °FSunny.1 mph62%30.36 "Hg10 mi
7:00 am46 °FPassing clouds.3 mph53%30.36 "HgN/A
6:00 am45 °FClear.5 mph66%30.33 "Hg10 mi
5:00 am41 °FClear.2 mph76%30.30 "Hg10 mi
1:00 am46 °FClear.5 mph62%30.30 "Hg5 mi
12:00 am48 °FCool.6 mph62%30.30 "Hg5 mi
11:00 pm
Sat, May 30
52 °FClear.2 mph50%30.30 "Hg10 mi
10:00 pm52 °FClear.2 mph50%30.27 "Hg10 mi
9:00 pm57 °FClear.5 mph41%30.27 "Hg10 mi
8:00 pm57 °FClear.No wind41%30.27 "Hg10 mi
7:00 pm63 °FClear.1 mph32%30.24 "Hg10 mi
Weather by CustomWeather, © 2020

See weather overview

Advertising